DAURIA DX 1 (40071 NORAD) Tracking and Keplerian Element Data

This shows tracking and keplerian element data for the satellite.

Feedback or suggestion? Click here.




ElementValue
Catalog40071
NameDAURIA DX 1
Epoch Orbit23441
Epoch Day312.85008096
Epoch Year2018
RAAN90.8488
Inclination98.3957
Eccentricity0.0007759
Argument of Perigee209.8535
Mean Anonmoly150.2238
Mean Motion14.81205991
Decay Rate1.1E-06
L11 40071U 14037C 18312.85008096 .00000110 00000-0 21596-4 0 9997
L22 40071 98.3957 90.8488 0007759 209.8535 150.2238 14.81205991234417

Live tracking and technical data element details for DAURIA DX 1 (NORAD 40071). DAURIA DX 1 can be tracked NOW for your location showing map with azimuth and elevation plus other details from your city location.

Track the satellite on the map from your city or location and see movement details for azimuth, elevation, latitude, longitude, range, height, and movement on the map or in text.







IsCatalogInMostPopularTable: catalog: 40071, numindb: 110
Update: records affected: 1



GetName: 40071 DAURIA DX 1

Hit Count: updated at: Fri, 16 Nov 2018 03:12:55 GMT